Location: Unspecified
(0.0000°N, 0.0000°E)
Time: 12:18:10
(UTC+00:00)

SEEDS - Pass Details

Date: 28 September 2021
Orbit: 585 x 601 km, 97.6° (Epoch: 15 October)

Event Time Altitude Azimuth Distance (km) Brightness Sun altitude
Rises 04:08:21 0° 14° (NNE) 2,833 ? -25.6°
Reaches altitude 10° 04:10:31 10° 15° (NNE) 1,934 ? -25.0°
Maximum altitude 04:14:43 78° 101° (E) 616 ? -24.0°
Drops below altitude 10° 04:18:56 10° 188° (S) 1,940 ? -22.9°
Sets 04:21:06 0° 189° (S) 2,844 ? -22.4°
